Regional Weather Roundup
Issued by NWS

Home | Current Version | Previous Version | Graphics & Text | Print | Product List | Glossary On
Versions: 1 2 3 4 5 6 7 8 9 10 11 12 13 14 15 16 17 18 19 20 21 22 23 24 25 26 27 28 29 30 31 32 33 34 35 36 37 38 39 40 41 42 43 44 45 46 47 48 49 50
000
ASUS43 KLMK 280410
RWRKY
KENTUCKY REGIONAL WEATHER ROUNDUP
NATIONAL WEATHER SERVICE LOUISVILLE KY
1200 AM EDT SUN MAY 28 2017

NOTE "FAIR" INDICATES FEW OR NO CLOUDS BELOW 12,000 FEET
WITH NO SIGNIFICANT WEATHER AND/OR OBSTRUCTIONS TO VISIBILITY.

KYZ001>023-026-027-061>063-070>075-280500-
WESTERN AND SOUTH CENTRAL KENTUCKY

CITY           SKY/WX    TMP DP  RH WIND       PRES   REMARKS
PADUCAH        RAIN      65  62  90 SW8       29.95R FOG
HENDERSON      CLOUDY    67  62  84 S10       29.80F
OWENSBORO      CLOUDY    68  63  84 S5        29.82F
HOPKINSVILLE   DRIZZLE   64  64 100 S8        29.89F
BOWLING GREEN  CLOUDY    66  65  96 S7        29.91R
GLASGOW        CLOUDY    64  64 100 SW3       29.90R
$$

KYZ024-025-028>034-038-045-046-053-280500-
NORTH CENTRAL KENTUCKY

CITY           SKY/WX    TMP DP  RH WIND       PRES   REMARKS
LOUISVILLE/SDF CLOUDY    68  64  87 SE9       29.86F
LOUISVILLE/LOU CLOUDY    67  65  93 SE6       29.87F
FORT KNOX      MOCLDY    64  63  94 SE6       29.84F
$$

KYZ035>037-039>044-047>052-055>060-089>105-280500-
NORTHEAST KENTUCKY

CITY           SKY/WX    TMP DP  RH WIND       PRES   REMARKS
LEXINGTON      CLOUDY    65  61  87 NW3       29.88F
COVINGTON      CLOUDY    69  64  84 S9        29.84F
FRANKFORT      CLOUDY    66  62  87 CALM      29.88R
$$

KYZ054-064>069-076>088-106>120-280500-
SOUTHEAST KENTUCKY

CITY           SKY/WX    TMP DP  RH WIND       PRES   REMARKS
JACKSON        LGT RAIN  65  64  97 VRB3      29.92F
LONDON         NOT AVBL
SOMERSET       CLOUDY    61  61 100 SW8       29.94R
MIDDLESBORO    RAIN      63  63 100 CALM      29.96F
MONTICELLO     CLOUDY    63  62  97 W15       29.96F
$$





USA.gov is the U.S. government's official web portal to all federal, state and local government web resources and services.